Weather History for Nasa Shuttle, FL

Change the Weather History Date:

Sunday, August 4, 2013

  Actual Average Record
Temperature  
Mean Temperature 82 °F -  
Max Temperature 90 °F 86 °F 93 °F (1997)
Min Temperature 75 °F 71 °F 69 °F (2001)
Cooling Degree Days 17    
Growing Degree Days 32 (Base 50)    
Moisture  
Dew Point 77 °F    
Average Humidity 85    
Maximum Humidity 100    
Minimum Humidity 66    
Precipitation  
Precipitation 0.00 in - - ()
Sea Level Pressure  
Sea Level Pressure 30.05 in    
Wind  
Wind Speed 7 mph (WSW)    
Max Wind Speed 12 mph    
Max Gust Speed 20 mph    
Visibility 10 miles    
Events Rain    
Averages and records for this station are not official NWS values.
T = Trace of Precipitation, MM = Missing Value Source: NWS Daily Summary

Daily Weather History Graph

Daily Weather History Graph

Search for Another Location

Airport:

Trip Planner

Search our weather history database for the weather conditions in past years. The results will help you decide how hot, cold, wet, or windy it might be!

Date:

Astronomy

Aug. 04, 2013 Rise Set
Actual Time 6:46 AM EDT 8:11 PM EDT
Civil Twilight 6:20 AM EDT 8:36 PM EDT
Nautical Twilight 5:50 AM EDT 9:06 PM EDT
Astronomical Twilight 5:19 AM EDT 9:38 PM EDT
Moon 4:47 AM EDT (8/4) 6:33 PM EDT (8/4)
Length of Visible Light 14h 15m
Length of Day
13h 25m
Waning Crescent, 5% of the Moon is Illuminated
Aug 4
Waning Crescent
Aug 6
New
Aug 14
First Quarter
Aug 20
Full
Aug 28
Last Quarter

Hourly Weather History & Observations

Time (EDT) Temp. Heat Index Dew Point Humidity Pressure Visibility Wind Dir Wind Speed Gust Speed Precip Events Conditions
12:58 AM 75.7 °F - 74.8 °F 97% 30.09 in 10.0 mi SW 6.9 mph - N/A   Clear
1:58 AM 75.9 °F - 75.6 °F 99% 30.07 in 10.0 mi WSW 8.1 mph - N/A   Clear
2:58 AM 76.3 °F - 75.9 °F 99% 30.06 in 10.0 mi SW 8.1 mph - N/A   Clear
3:58 AM 76.3 °F - 75.9 °F 99% 30.05 in 10.0 mi SW 8.1 mph - N/A   Clear
4:58 AM 76.5 °F - 76.5 °F 100% 30.05 in 10.0 mi SW 6.9 mph - N/A   Clear
5:58 AM 76.5 °F - 76.5 °F 100% 30.05 in 10.0 mi SW 5.8 mph - N/A   Clear
6:58 AM 76.5 °F - 76.5 °F 100% 30.07 in 10.0 mi SW 5.8 mph - N/A   Clear
7:58 AM 77.9 °F - 77.9 °F 100% 30.08 in 10.0 mi WSW 6.9 mph - N/A   Clear
8:58 AM 80.1 °F 87.2 °F 79.7 °F 99% 30.09 in 10.0 mi WSW 8.1 mph - N/A   Clear
9:58 AM 83.5 °F 94.7 °F 79.0 °F 86% 30.09 in 10.0 mi West 6.9 mph - N/A   Clear
10:48 AM 86.0 °F 99.3 °F 78.8 °F 79% 30.08 in 10.0 mi WNW 8.1 mph - N/A   Mostly Cloudy
10:58 AM 86.4 °F 98.8 °F 77.9 °F 76% 30.09 in 10.0 mi West 11.5 mph - N/A   Mostly Cloudy
11:33 AM 87.8 °F 99.7 °F 77.0 °F 70% 30.07 in 10.0 mi West 8.1 mph - N/A   Scattered Clouds
11:58 AM 88.2 °F 100.1 °F 76.6 °F 69% 30.08 in 10.0 mi West 8.1 mph - N/A   Scattered Clouds
12:32 PM 86.0 °F 93.4 °F 73.4 °F 66% 30.06 in 10.0 mi SW 10.4 mph - N/A Rain Light Rain
12:43 PM 82.4 °F 89.5 °F 75.2 °F 79% 30.06 in 10.0 mi SW 10.4 mph - N/A   Scattered Clouds
12:58 PM 85.1 °F 92.9 °F 74.3 °F 70% 30.06 in 10.0 mi SW 9.2 mph - 0.00 in   Partly Cloudy
1:58 PM 89.8 °F 104.0 °F 77.9 °F 68% 30.04 in 10.0 mi West 11.5 mph 19.6 mph N/A   Mostly Cloudy
2:58 PM 85.8 °F 95.9 °F 76.1 °F 73% 30.03 in 10.0 mi West 5.8 mph - N/A   Mostly Cloudy
3:58 PM 84.0 °F 93.7 °F 77.0 °F 79% 30.03 in 10.0 mi WSW 5.8 mph - N/A   Partly Cloudy
4:58 PM 82.0 °F 88.4 °F 74.7 °F 78% 30.01 in 10.0 mi North 4.6 mph - N/A   Partly Cloudy
5:58 PM 81.1 °F 87.8 °F 76.1 °F 85% 30.01 in 10.0 mi North 1.2 mph - N/A   Partly Cloudy
6:58 PM 82.6 °F 90.5 °F 76.3 °F 81% 30.01 in 10.0 mi South 4.6 mph - N/A   Scattered Clouds
7:58 PM 82.2 °F 91.0 °F 77.7 °F 86% 30.01 in 10.0 mi South 3.5 mph - N/A   Mostly Cloudy
8:58 PM 81.9 °F 90.2 °F 77.7 °F 87% 30.02 in 10.0 mi SW 4.6 mph - N/A   Overcast
9:58 PM 81.9 °F 90.8 °F 78.3 °F 89% 30.02 in 10.0 mi SW 5.8 mph - N/A   Mostly Cloudy
10:58 PM 81.1 °F 88.0 °F 76.6 °F 86% 30.03 in 10.0 mi WSW 5.8 mph - N/A   Overcast
11:58 PM 80.4 °F 86.6 °F 77.0 °F 89% 30.02 in 10.0 mi West 4.6 mph - N/A   Clear